Date String (YYYY-MM-DD hh:mm:ss) UTC,Instrument flags,absolute air pressure of the measurement (hPa),sample flow rate (lpm),inlet stack bypass flow (lpm),air temperature of the measurement (°C),ambient temperature measured by the external sensor (°C),aerosol sample conditioner tube jacket temperature (°C),OPC LED temperature (°C),internal box temperature (°C),relative humidity of the measurement (%),span deviation,mass concentration of particles derived from Lorenz-Mie calculation of OPC scattering (μg/m³),mass concentration of particles derived from Lorenz-Mie calculation of OPC scattering (μg/m³),mass concentration of particles derived from Lorenz-Mie calculation of OPC scattering (μg/m³)
DateTimeUTC,F1_M11,P_M11,Q1_M11,Q2_M11,T1_M11,T2_M11,T3_M11,T4_M11,T5_M11,U1_M11,ZSPAN_M11,X2_M11,X0_M11,X1_M11
2024-05-20 21:00:00,SystemResetWarning,0823.5,4.99,000.00,030.0,029.4,000.0,038.2,031.8,019.7,0000.0,0005.97,0020.95,0004.18
2024-05-20 21:01:00,SystemResetWarning,0823.4,4.99,000.00,030.1,029.4,000.0,038.2,031.7,019.7,0000.0,0005.99,0020.78,0004.17
2024-05-20 21:02:00,SystemResetWarning,0823.4,5.00,000.00,030.1,029.4,000.0,038.3,031.8,019.7,0000.0,0006.01,0020.35,0004.17
2024-05-20 21:03:00,SystemResetWarning,0823.4,5.01,000.00,030.1,029.5,000.0,038.3,031.8,019.5,0000.0,0005.97,0021.10,0004.17
2024-05-20 21:04:00,SystemResetWarning,0823.4,5.00,000.00,030.1,029.5,000.0,038.3,031.8,019.6,0000.0,0006.03,0022.87,0004.15
2024-05-20 21:05:00,SystemResetWarning,0823.4,5.01,000.00,030.1,029.5,000.0,038.3,031.8,019.9,0000.0,0006.07,0022.76,0004.15
2024-05-20 21:06:00,SystemResetWarning,0823.4,5.00,000.00,030.1,029.5,000.0,038.3,031.9,019.6,0000.0,0005.99,0021.99,0004.13
2024-05-20 21:07:00,SystemResetWarning,0823.3,5.01,000.00,030.1,029.5,000.0,038.3,031.9,019.4,0000.0,0005.88,0021.53,0004.12
2024-05-20 21:08:00,SystemResetWarning,0823.3,5.00,000.00,030.1,029.5,000.0,038.4,031.9,019.2,0000.0,0005.84,0022.14,0004.11
2024-05-20 21:09:00,SystemResetWarning,0823.3,5.00,000.00,030.2,029.5,000.0,038.4,031.9,019.2,0000.0,0005.75,0021.65,0004.10
2024-05-20 21:10:00,SystemResetWarning,0823.3,5.00,000.00,030.2,029.5,000.0,038.4,031.9,019.4,0000.0,0005.70,0022.38,0004.09
2024-05-20 21:11:00,SystemResetWarning,0823.3,4.99,000.00,030.2,029.6,000.0,038.4,031.9,019.4,0000.0,0005.67,0023.35,0004.08
2024-05-20 21:12:00,SystemResetWarning,0823.3,4.99,000.00,030.2,029.6,000.0,038.4,031.9,019.4,0000.0,0005.68,0023.26,0004.05
2024-05-20 21:13:00,SystemResetWarning,0823.3,5.01,000.00,030.2,029.6,000.0,038.5,032.0,019.4,0000.0,0005.61,0022.52,0004.03
2024-05-20 21:14:00,SystemResetWarning,0823.3,5.01,000.00,030.2,029.6,000.0,038.5,031.9,019.6,0000.0,0005.64,0021.53,0004.01
2024-05-20 21:15:00,SystemResetWarning,0823.3,5.00,000.00,030.3,029.6,000.0,038.5,032.0,019.3,0000.0,0005.66,0019.98,0003.99
2024-05-20 21:16:00,SystemResetWarning,0823.2,4.99,000.00,030.3,029.7,000.0,038.5,032.0,019.2,0000.0,0005.70,0019.22,0003.99
2024-05-20 21:17:00,SystemResetWarning,0823.1,4.99,000.00,030.3,029.7,000.0,038.5,032.0,019.2,0000.0,0005.66,0019.11,0004.00
2024-05-20 21:18:00,SystemResetWarning,0823.1,5.00,000.00,030.3,029.7,000.0,038.5,032.0,019.2,0000.0,0005.72,0018.90,0004.02
2024-05-20 21:19:00,SystemResetWarning,0823.0,5.00,000.00,030.3,029.7,000.0,038.5,032.0,019.3,0000.0,0005.79,0017.87,0004.05
2024-05-20 21:20:00,SystemResetWarning,0822.9,5.00,000.00,030.3,029.7,000.0,038.5,032.0,019.3,0000.0,0005.89,0017.76,0004.08
2024-05-20 21:21:00,SystemResetWarning,0822.9,5.00,000.00,030.4,029.7,000.0,038.6,032.0,019.5,0000.0,0006.14,0020.43,0004.11
2024-05-20 21:22:00,SystemResetWarning,0822.9,5.00,000.00,030.4,029.7,000.0,038.6,032.0,019.3,0000.0,0006.50,0024.12,0004.15
2024-05-20 21:23:00,SystemResetWarning,0822.9,5.00,000.00,030.4,029.8,000.0,038.6,032.1,019.3,0000.0,0006.49,0025.81,0004.17
2024-05-20 21:24:00,SystemResetWarning,0823.0,5.00,000.00,030.4,029.8,000.0,038.6,032.1,019.3,0000.0,0006.46,0026.75,0004.17
2024-05-20 21:25:00,SystemResetWarning,0823.0,5.00,000.00,030.4,029.8,000.0,038.6,032.1,019.4,0000.0,0006.48,0027.01,0004.19
2024-05-20 21:26:00,SystemResetWarning,0823.0,4.99,000.00,030.4,029.8,000.0,038.6,032.1,019.5,0000.0,0006.50,0027.24,0004.21
2024-05-20 21:27:00,SystemResetWarning,0823.0,5.00,000.00,030.4,029.8,000.0,038.7,032.2,019.3,0000.0,0006.46,0027.32,0004.21
2024-05-20 21:28:00,SystemResetWarning,0823.0,5.00,000.00,030.5,029.8,000.0,038.7,032.2,019.0,0000.0,0006.46,0027.69,0004.19
2024-05-20 21:29:00,SystemResetWarning,0823.0,5.00,000.00,030.5,029.9,000.0,038.7,032.2,019.1,0000.0,0006.47,0027.60,0004.17
2024-05-20 21:30:00,SystemResetWarning,0823.0,5.00,000.00,030.5,029.9,000.0,038.7,032.2,019.1,0000.0,0006.42,0028.02,0004.15
2024-05-20 21:31:00,SystemResetWarning,0823.0,5.00,000.00,030.5,029.9,000.0,038.7,032.2,019.0,0000.0,0006.39,0027.62,0004.13
2024-05-20 21:32:00,SystemResetWarning,0823.1,5.01,000.00,030.5,029.9,000.0,038.7,032.2,019.0,0000.0,0006.18,0025.29,0004.13
2024-05-20 21:33:00,SystemResetWarning,0823.1,5.00,000.00,030.5,029.9,000.0,038.7,032.2,019.0,0000.0,0005.89,0021.07,0004.11
2024-05-20 21:34:00,SystemResetWarning,0823.1,4.98,000.00,030.6,029.9,000.0,038.8,032.3,019.0,0000.0,0005.90,0019.91,0004.11
2024-05-20 21:35:00,SystemResetWarning,0823.0,5.00,000.00,030.6,030.0,000.0,038.8,032.3,018.9,0000.0,0005.91,0019.26,0004.12
2024-05-20 21:36:00,SystemResetWarning,0823.0,5.01,000.00,030.6,030.0,000.0,038.8,032.3,019.2,0000.0,0005.86,0019.32,0004.11
2024-05-20 21:37:00,SystemResetWarning,0822.9,5.01,000.00,030.6,030.0,000.0,038.8,032.3,019.5,0000.0,0005.82,0020.85,0004.09
2024-05-20 21:38:00,SystemResetWarning,0822.9,5.00,000.00,030.6,030.0,000.0,038.8,032.3,019.4,0000.0,0005.86,0021.88,0004.08
2024-05-20 21:39:00,SystemResetWarning,0823.0,4.99,000.00,030.6,030.0,000.0,038.8,032.4,019.1,0000.0,0005.86,0022.43,0004.09
2024-05-20 21:40:00,SystemResetWarning,0822.9,5.00,000.00,030.7,030.0,000.0,038.9,032.4,019.3,0000.0,0005.86,0022.53,0004.09
2024-05-20 21:41:00,SystemResetWarning,0823.0,5.00,000.00,030.7,030.0,000.0,038.9,032.3,019.2,0000.0,0005.87,0022.78,0004.09
2024-05-20 21:42:00,SystemResetWarning,0822.9,4.99,000.00,030.7,030.0,000.0,038.9,032.3,019.1,0000.0,0005.79,0022.44,0004.09
2024-05-20 21:43:00,SystemResetWarning,0822.8,4.99,000.00,030.7,030.1,000.0,038.9,032.3,019.1,0000.0,0005.79,0022.88,0004.08
2024-05-20 21:44:00,SystemResetWarning,0822.9,5.00,000.00,030.7,030.1,000.0,038.9,032.4,019.0,0000.0,0005.76,0023.08,0004.06
2024-05-20 21:45:00,SystemResetWarning,0823.0,5.00,000.00,030.7,030.1,000.0,038.9,032.4,019.0,0000.0,0005.75,0022.36,0004.06
2024-05-20 21:46:00,SystemResetWarning,0822.9,5.00,000.00,030.7,030.1,000.0,038.9,032.4,019.0,0000.0,0005.75,0022.29,0004.06
2024-05-20 21:47:00,SystemResetWarning,0822.9,5.01,000.00,030.7,030.1,000.0,038.9,032.4,019.0,0000.0,0005.71,0021.76,0004.05
2024-05-20 21:48:00,SystemResetWarning,0822.9,4.99,000.00,030.8,030.1,000.0,038.9,032.4,019.1,0000.0,0005.68,0019.74,0004.05
2024-05-20 21:49:00,SystemResetWarning,0822.9,4.99,000.00,030.8,030.1,000.0,039.0,032.4,019.0,0000.0,0005.61,0018.86,0004.06
2024-05-20 21:50:00,SystemResetWarning,0823.0,5.00,000.00,030.8,030.1,000.0,039.0,032.5,019.0,0000.0,0005.56,0017.58,0004.07
2024-05-20 21:51:00,SystemResetWarning,0823.1,5.00,000.00,030.8,030.2,000.0,039.0,032.5,019.1,0000.0,0005.52,0017.33,0004.06
2024-05-20 21:52:00,SystemResetWarning,0823.0,5.01,000.00,030.8,030.2,000.0,039.0,032.5,019.2,0000.0,0005.51,0017.72,0004.05
2024-05-20 21:53:00,SystemResetWarning,0823.1,5.00,000.00,030.8,030.2,000.0,039.0,032.5,019.1,0000.0,0005.55,0018.76,0004.04
2024-05-20 21:54:00,SystemResetWarning,0822.7,5.01,000.00,030.8,030.2,000.0,039.0,032.5,019.0,0000.0,0005.56,0018.98,0004.04
2024-05-20 21:55:00,SystemResetWarning,0822.8,4.99,000.00,030.8,030.2,000.0,039.0,032.5,019.1,0000.0,0005.59,0018.78,0004.07
2024-05-20 21:56:00,SystemResetWarning,0822.6,4.99,000.00,030.8,030.2,000.0,039.0,032.5,019.1,0000.0,0005.65,0020.05,0004.09
2024-05-20 21:57:00,SystemResetWarning,0822.9,4.99,000.00,030.9,030.2,000.0,039.1,032.5,019.1,0000.0,0005.66,0021.31,0004.10
2024-05-20 21:58:00,SystemResetWarning,0823.2,5.02,000.00,030.9,030.2,000.0,039.1,032.5,019.1,0000.0,0005.74,0022.23,0004.12
2024-05-20 21:59:00,SystemResetWarning,0822.9,5.00,000.00,030.9,030.2,000.0,039.1,032.5,019.1,0000.0,0005.80,0023.01,0004.13
